[[{"header":{"parameterUnit":"m.s-1","parameterCategory":1,"la1":30.2991,"la2":30.254,"lo1":-89.0895,"lo2":-89.0444,"dy":0.0017,"dx":0.0017,"nx":28,"ny":28,"refTime":"2023-11-17T03:00:00:Z","depth":0,"parameterNumber":2,"parameterNumberName":"U-component_of_WINDS"},"data":[0,0,0,0,0,0,0,0,0,0,0,0,0,0,0,0,0,0,0,0,0,0,0,0,0,0,0,0,0,0,0,0,0,0,0,0,0,0,0,0,0,0,0,0,0,0,0,0,0,0,0,0,0,0,0,0,0,0,-0.6668,-0.6669,0,-0.6742,-0.6743,-0.6744,-0.6757,-0.6756,-0.6755,-0.6755,-0.6834,-0.6837,-0.684,0,0,0,0,0,0,0,0,0,0,0,0,0,-0.6541,-0.6543,-0.6668,-0.6669,-0.667,-0.6742,-0.6743,-0.6744,-0.6757,-0.6756,-0.6755,-0.6754,-0.6834,-0.6837,-0.684,0,0,0,0,0,0,0,0,0,0,0,0,0,-0.6604,-0.6544,-0.6668,-0.6685,-0.6687,-0.6742,-0.6743,-0.6744,-0.6757,-0.6756,-0.6755,-0.6754,-0.6832,-0.6836,-0.684,-0.6885,0,0,-0.6853,-0.6855,0,0,0,0,0,0,0,0,-0.66,-0.6609,-0.6681,-0.6684,-0.6686,-0.6739,-0.6728,-0.6792,-0.6757,-0.673,-0.6755,-0.6753,-0.6804,-0.681,-0.6826,-0.6889,-0.6892,-0.6853,-0.6856,-0.6858,-0.6859,0,0,0,0,0,0,0,-0.6596,-0.6606,-0.6698,-0.6682,-0.6685,-0.669,-0.6698,-0.674,-0.6772,-0.6733,-0.6734,-0.6742,-0.6805,-0.6822,-0.6828,-0.6893,-0.6853,-0.6857,-0.6859,-0.6861,-0.6997,-0.6998,0,0,0,0,0,0,-0.6588,-0.6602,-0.6695,-0.67,-0.664,-0.6693,-0.6702,-0.6723,-0.6771,-0.6778,-0.6743,-0.6742,-0.6816,-0.6823,-0.6831,-0.6887,-0.6857,-0.6861,-0.6864,-0.6996,-0.6997,-0.6999,0,0,0,0,0,0,-0.6585,-0.6596,-0.6692,-0.6651,-0.6664,-0.6696,-0.672,-0.6725,-0.6742,-0.6779,-0.6785,-0.6754,-0.6815,-0.6825,-0.6871,-0.689,-0.6863,-0.6867,-0.6995,-0.6996,-0.6998,-0.6998,0,0,0,0,0,0,-0.6582,-0.6595,-0.6611,-0.6651,-0.6666,-0.673,-0.6721,-0.6727,-0.6749,-0.6749,-0.6791,-0.6798,-0.6815,-0.6865,-0.6875,-0.6895,-0.687,-0.6993,-0.6995,-0.6997,-0.6997,-0.7,-0.7002,0,0,0,0,0,-0.6577,-0.6609,-0.6612,-0.6623,-0.6687,-0.6731,-0.6739,-0.6758,-0.675,-0.6768,-0.6791,-0.6796,-0.6886,-0.687,-0.6881,-0.6902,-0.6992,-0.6995,-0.6997,-0.6995,-0.6999,-0.7002,0,0,0,0,0,0,-0.6572,-0.6615,-0.6619,-0.6664,-0.6694,-0.6733,-0.6755,-0.6761,-0.6794,-0.6793,-0.6816,-0.6826,-0.6871,-0.6891,-0.6873,-0.6948,-0.6939,-0.6944,-0.6933,-0.6937,-0.694,-0.6934,-0.6873,0,0,0,0,0,-0.6576,-0.6607,-0.6643,-0.668,-0.6695,-0.6722,-0.6743,-0.6754,-0.6786,-0.6799,-0.6826,-0.6858,-0.6894,-0.6917,-0.6951,-0.7,-0.701,-0.702,-0.7023,-0.7025,-0.7029,-0.7057,-0.7062,-0.7007,-0.7007,-0.7007,0,0,-0.6585,-0.6612,-0.6631,-0.668,-0.6704,-0.6737,-0.6733,-0.6768,-0.6793,-0.6805,-0.685,-0.6871,-0.6908,-0.6956,-0.6978,-0.6974,-0.7047,-0.7028,-0.703,-0.7033,-0.706,-0.7066,-0.707,-0.7009,-0.7009,-0.7008,0,0,-0.6618,-0.6641,-0.6675,-0.6699,-0.6735,-0.6754,-0.6762,-0.68,-0.6814,-0.6859,-0.6869,-0.69,-0.696,-0.6987,-0.7008,-0.7052,-0.7058,-0.7062,-0.7077,-0.7104,-0.7109,-0.7113,-0.7129,-0.7134,-0.7067,-0.7067,-0.7067,0,-0.6625,-0.6673,-0.6692,-0.6726,-0.6748,-0.6759,-0.6794,-0.6817,-0.6864,-0.6879,-0.6874,-0.695,-0.6976,-0.703,-0.7041,-0.7058,-0.7069,-0.7058,-0.7106,-0.7111,-0.7115,-0.713,-0.7136,-0.7067,-0.7067,-0.7067,-0.7067,0,-0.668,-0.6714,-0.6737,-0.678,-0.6805,-0.684,-0.6864,-0.6887,-0.6897,-0.6916,-0.6963,-0.6994,-0.7036,-0.705,-0.706,-0.7106,-0.7102,-0.7101,-0.7092,-0.712,-0.7135,-0.7141,-0.7067,-0.7067,-0.7067,-0.7067,0,0,-0.6712,-0.6765,-0.6773,-0.6793,-0.6834,-0.6861,-0.6897,-0.6936,-0.6956,-0.6988,-0.7019,-0.707,-0.707,-0.7094,-0.7108,-0.7131,-0.7165,-0.7128,-0.7129,-0.7134,-0.7218,-0.7218,-0.7225,-0.7169,-0.717,-0.7171,-0.7215,0,-0.675,-0.6813,-0.683,-0.6884,-0.6916,-0.6927,-0.6959,-0.6988,-0.7007,-0.7038,-0.706,-0.7096,-0.7092,-0.7107,-0.7131,-0.7155,-0.7182,-0.7153,-0.7199,-0.7201,-0.719,-0.7233,-0.7233,-0.7273,-0.7221,-0.7222,-0.7223,0,-0.6803,-0.6834,-0.6891,-0.6928,-0.6942,-0.697,-0.7008,-0.7037,-0.7071,-0.7084,-0.7111,-0.7122,-0.7161,-0.715,-0.7205,-0.7184,-0.7205,-0.722,-0.7222,-0.7227,-0.7213,-0.7239,-0.7286,-0.7292,-0.7232,-0.7231,-0.7231,0,-0.682,-0.6877,-0.6918,-0.6935,-0.698,-0.6999,-0.7019,-0.7052,-0.7075,-0.7108,-0.7124,-0.7162,-0.7183,-0.7213,-0.7235,-0.7224,-0.7289,-0.7279,-0.7301,-0.73,-0.7314,-0.7313,-0.7364,-0.7327,-0.7327,-0.7327,-0.7326,0,-0.6861,-0.6895,-0.6927,-0.6952,-0.6991,-0.7012,-0.705,-0.7071,-0.71,-0.7131,-0.7144,-0.7172,-0.72,-0.7233,-0.7251,-0.7294,-0.7303,-0.7315,-0.732,-0.7314,-0.7313,-0.7328,-0.7326,-0.7328,-0.7328,-0.7327,-0.7327,0,-0.6887,-0.691,-0.6955,-0.6994,-0.7004,-0.7031,-0.7065,-0.7091,-0.711,-0.7149,-0.7159,-0.7191,-0.723,-0.7255,-0.7306,-0.7318,-0.7365,-0.7369,-0.7353,-0.7355,-0.7376,-0.7374,-0.744,-0.745,-0.7405,-0.7405,-0.7406,0,-0.6912,-0.6938,-0.6979,-0.7,-0.7019,-0.7053,-0.7076,-0.7098,-0.7122,-0.7163,-0.7184,-0.7224,-0.7257,-0.7319,-0.7348,-0.7387,-0.7391,-0.7412,-0.7397,-0.7391,-0.7392,-0.739,-0.7393,-0.7414,-0.7414,-0.7415,-0.7415,0,-0.6953,-0.6963,-0.6995,-0.7031,-0.7058,-0.7088,-0.7118,-0.7134,-0.7162,-0.7188,-0.7228,-0.7253,-0.7304,-0.7344,-0.7386,-0.7408,-0.7417,-0.7419,-0.7427,-0.7421,-0.7411,-0.7417,-0.736,-0.7418,-0.7417,-0.7417,-0.7417,-0.7417,-0.6979,-0.7003,-0.7036,-0.7071,-0.7096,-0.7124,-0.715,-0.7173,-0.7206,-0.7248,-0.726,-0.7301,-0.7336,-0.7393,-0.7415,-0.7449,-0.7447,-0.7457,-0.746,-0.7462,-0.7463,-0.7406,-0.7457,-0.7457,-0.7457,-0.7457,-0.7457,0,-0.7021,-0.7043,-0.7075,-0.7116,-0.7145,-0.7149,-0.7183,-0.7206,-0.7242,-0.7273,-0.7305,-0.7352,-0.7391,-0.7422,-0.7462,-0.7484,-0.7489,-0.7494,-0.7492,-0.7497,-0.7463,-0.7452,-0.7489,-0.7489,-0.7489,-0.7489,-0.7489,-0.7489,-0.7046,-0.7087,-0.7101,-0.7155,-0.7177,-0.7217,-0.7236,-0.7262,-0.7287,-0.7338,-0.7369,-0.7389,-0.7421,-0.7464,-0.75,-0.7509,-0.7523,-0.7527,-0.7537,-0.7503,-0.75,-0.7496,-0.7487,-0.753,-0.753,-0.7569,-0.7569,-0.7569]},{"header":{"parameterUnit":"m.s-1","parameterCategory":1,"la1":30.2991,"la2":30.254,"lo1":-89.0895,"lo2":-89.0444,"dy":0.0017,"dx":0.0017,"nx":28,"ny":28,"refTime":"2023-11-17T03:00:00:Z","depth":0,"parameterNumber":3,"parameterNumberName":"V-component_of_WINDS"},"data":[0,0,0,0,0,0,0,0,0,0,0,0,0,0,0,0,0,0,0,0,0,0,0,0,0,0,0,0,0,0,0,0,0,0,0,0,0,0,0,0,0,0,0,0,0,0,0,0,0,0,0,0,0,0,0,0,0,0,-3.0339,-3.0339,0,-3.0297,-3.0297,-3.0296,-3.0231,-3.023,-3.0229,-3.0228,-3.0184,-3.0184,-3.0184,0,0,0,0,0,0,0,0,0,0,0,0,0,-3.0364,-3.0363,-3.0339,-3.0339,-3.0338,-3.0297,-3.0296,-3.0296,-3.0231,-3.023,-3.0229,-3.0227,-3.0184,-3.0184,-3.0184,0,0,0,0,0,0,0,0,0,0,0,0,0,-3.034,-3.0363,-3.0339,-3.0301,-3.0297,-3.0297,-3.0296,-3.0296,-3.0232,-3.023,-3.0228,-3.0227,-3.0184,-3.0184,-3.0184,-3.0218,0,0,-3.0184,-3.0184,0,0,0,0,0,0,0,0,-3.0342,-3.034,-3.0307,-3.0304,-3.0299,-3.0268,-3.0289,-3.027,-3.0232,-3.0257,-3.0228,-3.0226,-3.0213,-3.0211,-3.0207,-3.0216,-3.0214,-3.0184,-3.0184,-3.0184,-3.0184,0,0,0,0,0,0,0,-3.0343,-3.0341,-3.0322,-3.0307,-3.0302,-3.0286,-3.0281,-3.0285,-3.0245,-3.0254,-3.0249,-3.0245,-3.0211,-3.0207,-3.0205,-3.0214,-3.0184,-3.0184,-3.0184,-3.0184,-3.0249,-3.0251,0,0,0,0,0,0,-3.0351,-3.0343,-3.0324,-3.0321,-3.0317,-3.0287,-3.0281,-3.0279,-3.0245,-3.0238,-3.0247,-3.0242,-3.0208,-3.0205,-3.0203,-3.0241,-3.0184,-3.0184,-3.0183,-3.0247,-3.0249,-3.0251,0,0,0,0,0,0,-3.0352,-3.035,-3.0325,-3.0331,-3.0326,-3.0288,-3.0287,-3.028,-3.0275,-3.0239,-3.0232,-3.025,-3.0206,-3.0204,-3.0215,-3.0239,-3.0183,-3.0183,-3.0245,-3.0248,-3.025,-3.0317,0,0,0,0,0,0,-3.0353,-3.035,-3.0363,-3.0331,-3.0326,-3.0338,-3.0289,-3.028,-3.0276,-3.0269,-3.0241,-3.0234,-3.0205,-3.0216,-3.0215,-3.0238,-3.0183,-3.0243,-3.0246,-3.025,-3.0313,-3.0322,-3.033,0,0,0,0,0,-3.0354,-3.0383,-3.0364,-3.0362,-3.0341,-3.034,-3.0337,-3.0303,-3.0278,-3.029,-3.0267,-3.0235,-3.0236,-3.0217,-3.0216,-3.0239,-3.0241,-3.0245,-3.0249,-3.0309,-3.032,-3.0329,0,0,0,0,0,0,-3.0419,-3.0378,-3.0357,-3.0377,-3.0362,-3.0329,-3.0343,-3.0316,-3.0307,-3.0302,-3.026,-3.0254,-3.0271,-3.0256,-3.0236,-3.027,-3.0234,-3.0238,-3.028,-3.029,-3.0298,-3.0302,-3.0183,0,0,0,0,0,-3.0435,-3.0437,-3.0402,-3.0423,-3.0417,-3.0382,-3.038,-3.0355,-3.0338,-3.0331,-3.0309,-3.0293,-3.029,-3.0289,-3.0284,-3.031,-3.0303,-3.0325,-3.0334,-3.0341,-3.0345,-3.0358,-3.0367,-3.0265,-3.0265,-3.0265,0,0,-3.047,-3.0448,-3.0452,-3.0436,-3.0422,-3.0425,-3.0377,-3.0382,-3.0384,-3.0332,-3.0342,-3.0325,-3.0305,-3.0324,-3.0331,-3.0312,-3.0372,-3.0346,-3.0352,-3.0352,-3.0363,-3.0373,-3.0382,-3.0268,-3.0267,-3.0267,0,0,-3.0534,-3.0518,-3.0534,-3.0521,-3.05,-3.0476,-3.048,-3.0451,-3.0438,-3.0447,-3.0408,-3.0409,-3.0405,-3.0392,-3.0385,-3.0445,-3.0416,-3.0445,-3.049,-3.0503,-3.0511,-3.0518,-3.054,-3.0548,-3.0449,-3.0449,-3.0449,0,-3.058,-3.0583,-3.0546,-3.0554,-3.0548,-3.0501,-3.0517,-3.0506,-3.0485,-3.0482,-3.0461,-3.0454,-3.0437,-3.0453,-3.0468,-3.0463,-3.0467,-3.0448,-3.0512,-3.0519,-3.0525,-3.0545,-3.0554,-3.0453,-3.0452,-3.0452,-3.0452,0,-3.064,-3.0643,-3.0659,-3.064,-3.0635,-3.0647,-3.0612,-3.0613,-3.0588,-3.0567,-3.0577,-3.0555,-3.0545,-3.0546,-3.0522,-3.0559,-3.0548,-3.052,-3.0483,-3.0539,-3.0558,-3.0565,-3.0458,-3.0457,-3.0456,-3.0455,0,0,-3.0745,-3.0705,-3.0711,-3.0702,-3.0676,-3.0677,-3.0687,-3.0677,-3.0679,-3.0665,-3.0673,-3.067,-3.0645,-3.0637,-3.0611,-3.0622,-3.0672,-3.0593,-3.0592,-3.0609,-3.0711,-3.0733,-3.0742,-3.0652,-3.0653,-3.0654,-3.0713,0,-3.0804,-3.0819,-3.0786,-3.0809,-3.0812,-3.0767,-3.0776,-3.076,-3.0741,-3.074,-3.0717,-3.0717,-3.0683,-3.0678,-3.0687,-3.0664,-3.0692,-3.0659,-3.0659,-3.0659,-3.0666,-3.0752,-3.0774,-3.083,-3.072,-3.0721,-3.0722,0,-3.0876,-3.0867,-3.089,-3.0862,-3.0862,-3.087,-3.0859,-3.0859,-3.084,-3.0825,-3.0817,-3.0787,-3.0794,-3.0758,-3.0768,-3.0747,-3.0745,-3.0733,-3.0735,-3.0734,-3.0694,-3.0754,-3.0848,-3.0856,-3.0733,-3.0732,-3.0731,0,-3.095,-3.0944,-3.0957,-3.095,-3.0918,-3.0925,-3.0912,-3.0892,-3.0889,-3.0879,-3.0876,-3.0867,-3.0862,-3.0856,-3.0824,-3.0801,-3.0839,-3.08,-3.0826,-3.0827,-3.0837,-3.0837,-3.0932,-3.0835,-3.0834,-3.0834,-3.0834,0,-3.1021,-3.1037,-3.099,-3.0998,-3.1015,-3.0977,-3.0995,-3.0977,-3.096,-3.0964,-3.0924,-3.0929,-3.0886,-3.0886,-3.0861,-3.0874,-3.0872,-3.086,-3.0853,-3.0864,-3.0865,-3.0862,-3.0858,-3.0836,-3.0836,-3.0836,-3.0835,0,-3.1107,-3.1076,-3.1088,-3.1056,-3.1049,-3.1063,-3.1036,-3.1042,-3.102,-3.1026,-3.1025,-3.099,-3.0988,-3.0955,-3.0946,-3.0929,-3.0952,-3.0937,-3.0958,-3.0954,-3.0983,-3.0981,-3.108,-3.1091,-3.0986,-3.0987,-3.0988,0,-3.1154,-3.1166,-3.1136,-3.1136,-3.1125,-3.1125,-3.1121,-3.1084,-3.1082,-3.1062,-3.1071,-3.1066,-3.1059,-3.1058,-3.1032,-3.1025,-3.101,-3.1045,-3.1009,-3.1019,-3.1011,-3.1011,-3.1012,-3.1053,-3.1055,-3.1056,-3.1057,0,-3.1241,-3.1226,-3.1222,-3.1213,-3.121,-3.1201,-3.119,-3.1192,-3.1151,-3.115,-3.1148,-3.1143,-3.1134,-3.1129,-3.1117,-3.1104,-3.1074,-3.1068,-3.1074,-3.1086,-3.1097,-3.1092,-3.098,-3.1066,-3.1065,-3.1065,-3.1064,-3.1064,-3.131,-3.1318,-3.1299,-3.1296,-3.1283,-3.1274,-3.1278,-3.1257,-3.1254,-3.1244,-3.1222,-3.1223,-3.1204,-3.1185,-3.1174,-3.1174,-3.1156,-3.1165,-3.1167,-3.117,-3.1176,-3.1097,-3.1172,-3.1172,-3.1171,-3.1171,-3.1171,0,-3.1396,-3.1381,-3.1379,-3.1364,-3.1362,-3.1334,-3.132,-3.132,-3.1322,-3.1307,-3.1302,-3.1299,-3.1294,-3.1268,-3.126,-3.1265,-3.1252,-3.1265,-3.1264,-3.1262,-3.1192,-3.1188,-3.1276,-3.1276,-3.1276,-3.1276,-3.1276,-3.1276,-3.144,-3.1453,-3.1435,-3.1441,-3.1426,-3.1427,-3.1421,-3.1412,-3.14,-3.1399,-3.1395,-3.1378,-3.1358,-3.1349,-3.1344,-3.1336,-3.1335,-3.1353,-3.1341,-3.1277,-3.1267,-3.1257,-3.1253,-3.1353,-3.1353,-3.1411,-3.1411,-3.1412]}]]